Satellite: NOAA-17
Catalog number: 27453
Epoch time:      05082.12398724
Element set:     311
Inclination:      098.6672 deg
RA of node:       156.9211 deg
Eccentricity:    0.0010833
Arg of perigee:   307.1418 deg
Mean anomaly:     052.8750 deg
Mean motion:   14.23643181 rev/day
Decay rate:       -4.4e-07 rev/day^2
Epoch rev:           14259
Checksum:              288

/EX
SB KEPS @ AMSAT  $ORB05083.M
Orbital Elements  05083.MISC

HR AMSAT ORBITAL ELEMENTS FOR MANNED AND MISCELLANEOUS SATELLITES
FROM WA5QGD FORT WORTH,TX March 24, 2005
SEND SUBSCRIBE/UNSUBSCRIBE TO majordomo@amsat.org ONLY
BID: ORB05083.M
TO ALL RADIO AMATEURS BT

Satellite: HUBBLE
Catalog number: 20580
Epoch time:      05083.47397082
Element set:     301
Inclination:      028.4673 deg
RA of node:       100.7220 deg
Eccentricity:    0.0003657
Arg of perigee:   098.4082 deg
Mean anomaly:     261.6922 deg
Mean motion:   14.99644257 rev/day
Decay rate:       8.74e-06 rev/day^2
Epoch rev:           61751
Checksum:              296

Satellite: UARS
Catalog number: 21701
Epoch time:      05082.90782882
Element set:     404
Inclination:      056.9810 deg
RA of node:       175.7357 deg
Eccentricity:    0.0005899
Arg of perigee:   111.2877 deg
Mean anomaly:     248.8793 deg
Mean motion:   15.03786381 rev/day
Decay rate:        3.0e-08 rev/day^2
Epoch rev:           74066
Checksum:              320

Satellite: PO-34
Catalog number: 25520
Epoch time:      05083.86035625
Element set:     139
Inclination:      028.4588 deg
RA of node:       156.0195 deg
Eccentricity:    0.0005572
Arg of perigee:   031.8824 deg
Mean anomaly:     328.2090 deg
Mean motion:   15.16176477 rev/day
Decay rate:      1.103e-05 rev/day^2
Epoch rev:           35377
Checksum:              300

Satellite: ISS
Catalog number: 25544
Epoch time:      05083.86912350
Element set:      86
Inclination:      051.6478 deg
RA of node:       332.3099 deg
Eccentricity:    0.0003539
Arg of perigee:   228.7698 deg
Mean anomaly:     229.4178 deg
Mean motion:   15.71299592 rev/day
Decay rate:     1.6737e-04 rev/day^2
Epoch rev:           36242
Checksum:              337

Satellite: WO-39
Catalog number: 26061
Epoch time:      03303.41062303
Element set:     973
Inclination:      100.1904 deg
RA of node:       047.3011 deg
Eccentricity:    0.0034615
Arg of perigee:   281.6926 deg
Mean anomaly:     078.0378 deg
Mean motion:   14.38082544 rev/day
Decay rate:      2.252e-05 rev/day^2
Epoch rev:           19701
Checksum:              268

Satellite: OO-38
Catalog number: 26063
Epoch time:      05083.59343368
Element set:     314
Inclination:      100.2262 deg
RA of node:       288.1067 deg
Eccentricity:    0.0036639
Arg of perigee:   293.4648 deg
Mean anomaly:     066.2705 deg
Mean motion:   14.35708422 rev/day
Decay rate:       1.05e-06 rev/day^2
Epoch rev:           27015
Checksum:              294

Satellite: NO-45
Catalog number: 26932
Epoch time:      05083.76850075
Element set:     993
Inclination:      067.0571 deg
RA of node:       084.8641 deg
Eccentricity:    0.0008996
Arg of perigee:   259.7823 deg
Mean anomaly:     100.2303 deg
Mean motion:   14.29476748 rev/day
Decay rate:        9.0e-07 rev/day^2
Epoch rev:           18173
Checksum:              332

/EX




----
Via the keps mailing list at AMSAT.ORG courtesy of AMSAT-NA.
To unsubscribe, send "unsubscribe keps" to Majordomo@amsat.org

--- ViaMAIL!/WC v1.60d
 * Origin: Chowdanet (401-331-0615) telnet://chowdanet.com  (1:323/120)